Regional Weather Roundup
Issued by NWS Newport/Morehead, NC

Current Version | Previous Version | Graphics & Text | Print | Product List | Glossary Off
Versions: 1 2 3 4 5 6 7 8 9 10 11 12 13 14 15 16 17 18 19 20 21 22 23 24 25 26 27 28 29 30 31 32 33 34 35 36 37 38 39 40 41 42 43 44 45 46 47 48 49 50

000
ASUS42 KMHX 282213
RWRMHX
WEATHER ROUNDUP FOR EASTERN NORTH CAROLINA
NATIONAL WEATHER SERVICE NEWPORT/MOREHEAD CITY NC
600 PM EDT THU APR 28 2016

NOTE: "FAIR" INDICATES FEW OR NO CLOUDS BELOW 12,000 FEET
WITH NO SIGNIFICANT WEATHER AND/OR OBSTRUCTIONS TO VISIBILITY

NCZ015>017-031-032-045>047-102-103-282300-
NORTH COAST

CITY           SKY/WX    TMP DP  RH WIND       PRES   REMARKS
EDENTON        MOSUNNY   72  66  82 E9        29.88S
ELIZABETH CITY CLOUDY    71  65  81 E5        29.89R
KITTY HAWK     PTCLDY    71  61  71 E5        29.87S
MANTEO         NOT AVBL

$$

NCZ045>047-081-094-103-104-282300-
CENTRAL COAST

CITY           SKY/WX    TMP DP  RH WIND       PRES   REMARKS
FRISCO         CLOUDY    73  68  84 SW12      29.88S
SWANQUARTER    NOT AVBL

$$

NCZ095-097-098-100-101-282300-
SOUTHERN COAST

CITY           SKY/WX    TMP DP  RH WIND       PRES   REMARKS
BEAUFORT       SUNNY     73  67  81 SW20G26   29.89S
CEDAR ISLAND   NOT AVBL
JACKSONVILLE   SUNNY     79  65  62 S13       29.86S
PINEY ISLAND   NOT AVBL
WILMINGTON     SUNNY     81  62  52 SW13      29.87F


$$

NCZ011>013-027>030-043-044-078>080-089-090>093-098-282300-
COASTAL PLAIN

CITY           SKY/WX    TMP DP  RH WIND       PRES   REMARKS
AHOSKIE        SUNNY     74  67  79 E5        29.86S
CLINTON        MOSUNNY   83  66  56 S8        29.84S
ELIZABETHTOWN  MOSUNNY   85  64  49 S8        29.85F
GOLDSBORO      MOSUNNY   84  61  45 SW10      29.81F
GREENVILLE     MOSUNNY   84  64  51 SW6       29.86S
HAVELOCK       MOSUNNY   77  64  64 S14G20    29.88R
KENANSVILLE    MOSUNNY   84  60  44 CALM      29.85S
KINSTON        MOSUNNY   84  61  45 SW8       29.84S
NEW BERN       MOSUNNY   84  63  49 SW10      29.86S
RICHLANDS      MOSUNNY   84  64  50 S15       29.85F
ROCKY MOUNT    CLOUDY    79  68  69 CALM      29.83S
WASHINGTON     MOSUNNY   82  66  58 SW8       29.83S
WHITEVILLE     MOSUNNY   82  67  62 S10G16    29.85F

$$

AMZ130-135-150-152-154-156-158-170-250-252-270-ANZ085-086-088-633-658-670-282300-
MARINE OBSERVATIONS

STATION/POSITION TIME  TEMP    WIND        PRES    WAVE   SWELL
                       AIR SEA DIR/SP/G            HT/PER HT/PER
                 (UTC) (F)     (DEG/KT/KT) (MB)    (FT/S) (FT/S)
CHESAPEAKE LIGHT 2200   53      30/ 14/ 14 1013.9
64 E VA BEACH    2150   59 56   20/  4/  6 1012.4    3/ 7   3/ 7
DUCK             2100   63 67   90/  6/  7 1011.6
2 E DUCK         2111      58                N/A     2/11
OREGON INLET     2100   70 66  190/ 12/ 16 1011.4
13E OREGON INLT  2200      61                N/A     3/ 5   2/ 8
HATTERAS CG      2100   72 69  200/ 11/ 16 1011.8
DIAMOND BUOY     2150   74 72  200/ 17/ 21 1011.8    3/ 5   2/11
CAPE LOOKOUT     2200   71     210/ 12/ 15 1011.9
BEAUFORT LAB     2100   71 68  210/ 14/ 20 1011.2
30 SE NEW RVR IN 2125      67                N/A     4/ 6
27 SE WRIGHTSVLE 2108   71 69  210/ 12/ 16 1015.6
5 SE WRIGHTSVLE  NOT AVBL
225 S CAPE HAT   2150   72 71  170/ 10/ 10 1016.0    2/11   2/11
41 SE CHARLESTON 2150   72 71  180/  8/ 10 1013.2    3/ 5   2/ 5

$$




USA.gov is the U.S. government's official web portal to all federal, state and local government web resources and services.